Regional Weather Roundup
Issued by NWS

Home | Current Version | Previous Version | Text Only | Print | Product List | Glossary Off
Versions: 1 2 3 4 5 6 7 8 9 10 11 12 13 14 15 16 17 18 19 20 21 22 23 24 25 26 27 28 29 30 31 32 33 34 35 36 37 38 39 40 41 42 43 44 45 46 47 48 49 50

000
ASUS45 KBOU 011307
RWRCO

WEATHER ROUNDUP FOR COLORADO
NATIONAL WEATHER SERVICE DENVER/BOULDER CO
600 AM MST SUN FEB 01 2015

NOTE: "FAIR" INDICATES FEW OR NO CLOUDS BELOW 12000 FEET WITH NO
SIGNIFICANT WEATHER AND/OR OBSTRUCTIONS TO VISIBILITY.

COZ001>005-013-030-031-011400-
...NORTHWEST COLORADO...

CITY           SKY/WX    TMP DP  RH WIND       PRES   REMARKS
CRAIG          CLOUDY    12   9  87 E3        30.12R
HAYDEN         PTCLDY    18  14  86 E3        30.09S
MEEKER         CLEAR     12   7  80 CALM      30.12S
MOUNT WERNER   NOT AVBL
STEAMBOAT SPGS CLOUDY    18  15  88 CALM      30.08S
WALDEN         MOCLDY    10   7  85 N6        30.02R WCI   1
$$

COZ006>008-011-011400-
...WEST CENTRAL VALLEYS...

CITY           SKY/WX    TMP DP  RH WIND       PRES   REMARKS
GRAND JUNCTION CLOUDY    29  29 100 E5        30.12R WCI  24
MONTROSE       MOCLDY    29  25  85 SE8       30.15R WCI  21
EAGLE          PTCLDY    18  16  93 E8        30.13R WCI   7
RIFLE          CLEAR     23  19  85 SE3       30.13R
DELTA          CLOUDY    35  34  96 CALM      30.14R
NUCLA          CLEAR     27  23  86 CALM      30.15S
$$

COZ017>023-064>068-011400-
...SOUTHWEST COLORADO...

CITY           SKY/WX    TMP DP  RH WIND       PRES   REMARKS
DURANGO        CLOUDY    30  29  96 N3        30.04R
CORTEZ         CLEAR     26  22  84 W3        30.06R
PAGOSA SPRINGS MOCLDY    28  28 100 E3        30.04R
TELLURIDE      PTCLDY    17   8  66 CALM      30.11S
WOLF CREEK PAS PTCLDY    12  -8  40 NE6G21    30.04S WCI   3
$$

COZ009-010-012-014-032>034-037-058>063-011400-
...CENTRAL COLORADO...

CITY           SKY/WX    TMP DP  RH WIND       PRES   REMARKS
ASPEN          MOCLDY    16  10  77 S7        30.08R WCI   6
BUENA VISTA    PTCLDY    24   5  44 NE6       29.99R WCI  17
COPPER MTN     PTCLDY     9   0  66 W25G33    29.94R WCI -13
BERTHOUD PASS  LGT SNOW   1  -6  71 NW38G52   29.83S WCI -26
COTTONWOOD PAS PTCLDY    21  -4  33 NW10G20   29.94R WCI  10
GUNNISON       PTCLDY    18   9  68 NW5       30.09R WCI  11
KREMMLING      PTCLDY    10   3  72 CALM      30.07R
LEADVILLE      PTCLDY    12   2  64 NW15G28   29.98R WCI  -4
MONARCH PASS     N/A      5   3  92 MISG      30.04R
SALIDA         PTCLDY    21  14  72 S3        30.07R
SUNLIGHT       PTCLDY   N/A N/A N/A W5          N/A
WILKERSON PASS PTCLDY     9   0  66 NW14G40   29.91F WCI  -8
$$

COZ069>075-011400-
...SAN LUIS VALLEY/SANGRE DE CRISTO MOUNTAINS...

CITY           SKY/WX    TMP DP  RH WIND       PRES   REMARKS
ALAMOSA        MOCLDY    18  15  88 W9        30.01R FOG     WCI   7
LA VETA PASS   PTCLDY    16  12  86 MISG      29.97S
SAGUACHE       PTCLDY    19   9  63 NE8       30.02R WCI   9
$$

COZ035-036-038>040-011400-
...NORTHERN COLORADO FRONT RANGE...

CITY           SKY/WX    TMP DP  RH WIND       PRES   REMARKS
DENVER INTL AP CLOUDY    20  15  81 NE8       30.08S WCI  10
DMNS CITY PARK   N/A     19  18  95 E3G9      30.08S
AURORA         LGT SNOW  19  17  90 NE8       30.07F FOG     WCI   9
FRONT RANGE AP NOT AVBL
ERIE MUNI ARPT MOCLDY    19  17  93 E3        30.09S
BOULDER MUN AP MIX PCPN  25  23  93 CALM      30.08R
CENTENNIAL     LGT SNOW  19  17  92 E5        30.06S FOG     WCI  12
BROOMFIELD     NOT AVBL
FORT COLLINS   PTCLDY    21  16  79 SE7       30.10R WCI  13
LONGMONT       CLOUDY    26  20  80 E8        30.11R WCI  17
$$

COZ041-046-047-076>085-087-088-011400-
...PIKES PEAK/PALMER DIVIDE AND SOUTHERN FOOTHILLS...

CITY           SKY/WX    TMP DP  RH WIND       PRES   REMARKS
COLO. SPRINGS  PTCLDY    21  14  74 N14       30.04R WCI   8
A. F. ACADEMY  CLEAR     18  13  80 N10       30.02S WCI   6
ELLICOTT       CLEAR    N/A N/A N/A N15       30.02R
FALCON         CLEAR     17  13  86 N15G21    30.00F WCI   2
FORT CARSON    CLEAR     24  17  75 N13       30.03R WCI  12
LIMON          FLURRIES  19  15  84 N21       30.05F WCI   3
MONUMENT HILL  LGT SNOW  14  12  92 NW5       30.02R WCI   6
TRINIDAD       LGT SNOW  27  25  92 NE12      30.05R FOG     WCI  17
$$

COZ042>045-048>051-090-091-011400-
...NORTHEAST COLORADO...

CITY           SKY/WX    TMP DP  RH WIND       PRES   REMARKS
GREELEY ARPT   MOCLDY    23  12  63 NE6       30.09R WCI  16
AKRON          CLOUDY    20  18  92 N15       30.08R WCI   6
BURLINGTON     CLOUDY    22  18  85 N24G31    30.05R WCI   5
WRAY           CLOUDY    20  17  86 NW21G26   30.13R WCI   4
STERLING       MOCLDY    23  18  80 N20G25    30.12R WCI   8
HOLYOKE        NOT AVBL
FORT MORGAN    CLOUDY    23  17  77 N9        30.11R WCI  13
$$

COZ086-089-092>099-011400-
...SOUTHEAST COLORADO...

CITY           SKY/WX    TMP DP  RH WIND       PRES   REMARKS
PUEBLO         PTCLDY    28  20  71 E7        30.06R WCI  21
LA JUNTA       CLEAR     28  21  75 N7        30.08R WCI  21
LAMAR          MOCLDY    27  20  75 N7        30.08R WCI  19
SPRINGFIELD      N/A     27  23  85 N25       30.03R WCI  12
$$


USA.gov is the U.S. government's official web portal to all federal, state and local government web resources and services.